Location: Diebersbach
(48.5163°N, 8.0558°E)
Time: 15:27:46
(UTC+00:00)

ATLAS 5 CENTAUR R/B - Pass Details

Date: 20 June 2021
Orbit: 510 x 1148 km, 63.4° (Epoch: 28 July)

Event Time Altitude Azimuth Distance (km) Brightness Sun altitude
Exits shadow 00:47:52 20° 152° (SSE) 1,271 2.8 -15.9°
Maximum altitude 00:49:23 26° 117° (ESE) 1,119 2.8 -15.9°
Drops below altitude 10° 00:52:58 10° 60° (ENE) 1,947 4.8 -15.7°
Sets 00:55:40 0° 49° (NE) 2,954 6.2 -15.5°
